Regional Weather Roundup
Issued by NWS

Home | Current Version | Previous Version | Graphics & Text | Print | Product List | Glossary On
Versions: 1 2 3 4 5 6 7 8 9 10 11 12 13 14 15 16 17 18 19 20 21 22 23 24 25 26 27 28 29 30 31 32 33 34 35 36 37 38 39 40 41 42 43 44 45 46 47 48 49 50
000
ASUS43 KMPX 272101
RWRMN
WEATHER ROUNDUP FOR MINNESOTA
NATIONAL WEATHER SERVICE TWIN CITIES/CHANHASSEN MN
400 PM CDT MON MAR 27 2017


NOTE: "FAIR" INDICATES FEW OR NO CLOUDS BELOW 12,000 FEET WITH NO
SIGNIFICANT WEATHER AND/OR OBSTRUCTIONS TO VISIBILITY. N/A MEANS
CURRENT SKY AND/OR WEATHER CONDITIONS ARE NOT AVAILABLE.

MNZ060>063-068>070-272200-
   Twin Cities Metro

CITY           SKY/WX    TMP DP  RH WIND       PRES   REMARKS
TWIN CITIES    PTSUNNY   59  31  34 NE8       29.94F
ST PAUL        PTSUNNY   59  34  39 NE8       29.94F
CRYSTAL        SUNNY     58  29  33 N10       29.93F
BLAINE         MOSUNNY   59  34  38 N6        29.94F
LAKEVILLE      CLOUDY    52  39  62 E6        29.95S
EDEN PRAIRIE   CLOUDY    59  33  37 CALM      29.93S
SOUTH ST PAUL  CLOUDY    54  35  49 SE5       29.94S
LAKE ELMO      FAIR      54  37  54 CALM      29.95F
$$
MNZ001>005-007-008-013>017-022>024-027-028-272200-
   Northwest Minnesota

CITY           SKY/WX    TMP DP  RH WIND       PRES   REMARKS
BEMIDJI        SUNNY     56  29  36 E7        29.95F
HALLOCK        PTSUNNY   37  36  93 CALM      30.01F
ROSEAU         SUNNY     52  41  66 CALM      29.98F
WARROAD        SUNNY     48  37  66 NE6       30.00S
THIEF RVR FALL   N/A    N/A N/A N/A CALM      29.99R
CROOKSTON      PTSUNNY   45  43  93 W9        30.00S
FOSSTON        SUNNY     61  37  41 CALM      29.96F
DETROIT LAKES  SUNNY     55  34  44 W3        29.96F
MOORHEAD       SUNNY     55  43  62 SW3       29.97F
PARK RAPIDS    SUNNY     58  31  35 N3        29.94S
MAHNOMEN       FAIR      55  40  56 W3        29.96S
$$
MNZ006-009>011-018-025>026-272200-
   North Central Minnesota

CITY           SKY/WX    TMP DP  RH WIND       PRES   REMARKS
BAUDETTE       SUNNY     53  33  46 CALM      29.96F
FLAG ISLAND    SUNNY     41  30  65 CALM      30.00R
INTL FALLS     SUNNY     53  27  36 NE7       29.97S
WASKISH        SUNNY     48  36  61 W8        29.96F
BIG FORK       SUNNY     55  28  35 E3        29.96S
LONGVILLE      SUNNY     55  30  38 NW3       29.95S
GRAND RAPIDS   SUNNY     53  31  42 NE5       29.97S
CRANE LAKE     SUNNY     52  25  35 CALM      29.98S
ORR            SUNNY     54  25  32 CALM      29.94S
COOK           SUNNY     54  28  37 CALM      29.96S
WALKER         FAIR      51  32  48 E6        29.96S
$$
MNZ012-019>021-037-272200-
   Northeast Minnesota

CITY           SKY/WX    TMP DP  RH WIND       PRES   REMARKS
DULUTH         CLOUDY    51  34  52 CALM      29.95F
ELY            SUNNY     52  25  35 NE3       29.96S
HIBBING        SUNNY     53  28  38 N7        29.95S
EVELETH        SUNNY     54  23  30 N3        29.96S
DULUTH HARBOR  CLOUDY    43  37  81 CALM      29.99S
TWO HARBORS    CLOUDY    50  39  66 SE6       29.96S
SILVER BAY     CLOUDY    48  36  61 SE3       29.96R
GRAND MARAIS     N/A     39  36  89 SW6       29.99S
G MARAIS ARPRT CLOUDY    43  30  61 SE3       29.96S
$$
MNZ029>031-032-039>041-046>048-054>057-064-272200-
   West Central Minnesota

CITY           SKY/WX    TMP DP  RH WIND       PRES   REMARKS
FERGUS FALLS   SUNNY     57  39  51 SW5       29.98S
WHEATON        SUNNY     57  34  41 E3        29.96F
MORRIS         MOSUNNY   59  34  38 E5        29.94F
ALEXANDRIA     CLOUDY    54  34  46 CALM      29.96S
ELBOW LAKE     CLOUDY    56  36  47 CALM      29.96F
WADENA         SUNNY     57  36  44 SE5       29.95S
GLENWOOD       MOSUNNY   55  36  47 CALM      29.96F
APPLETON       SUNNY     55  36  47 CALM      29.95F
BENSON         SUNNY     59  30  33 CALM      29.97F
ORTONVILLE     SUNNY     57  36  44 SE5       29.95F
MADISON        SUNNY     57  39  51 E7        29.96S
WILLMAR        FAIR      57  34  41 E5        29.97S
$$
MNZ033>034-036-042>043-049>051-058-059-272200-
   Central Minnesota

CITY           SKY/WX    TMP DP  RH WIND       PRES   REMARKS
ST CLOUD       CLOUDY    55  36  48 N7        29.96R
SAUK CENTRE    CLOUDY    54  35  48 E5        29.96F
PAYNESVILLE      N/A     54  33  45 N3        29.96F
AITKIN         SUNNY     57  30  35 CALM      29.94S
PINE RIVER     SUNNY     55  34  44 NE5       29.98S
BRAINERD       CLOUDY    53  33  46 CALM      29.96R
STAPLES        PTSUNNY   55  34  44 S7        29.95S
LONG PRAIRIE   PTSUNNY   54  36  50 SE6       29.96S
LITTLE FALLS   CLOUDY    54  34  47 SE6       29.96S
LITCHFIELD     CLOUDY    57  34  41 NE5       29.96S
BUFFALO        CLOUDY    55  32  41 NE6       29.96S
MAPLE LAKE     MOSUNNY   56  38  50 NW3       29.97R
HUTCHINSON     CLOUDY    56  37  49 NE3       29.97S
$$
MNZ037-044-045-052-053-272200-
   East Central Minnesota

CITY           SKY/WX    TMP DP  RH WIND       PRES   REMARKS
PRINCETON      PTSUNNY   57  34  41 N3        29.96R
MORA           SUNNY     54  34  47 CALM      29.97S
CAMBRIDGE      SUNNY     55  39  54 NE5       29.93F
RUSH CITY      SUNNY     55  37  50 N3        29.95S
MOOSE LAKE     MOSUNNY   54  32  43 NE3       29.95S
CLOQUET        SUNNY     52  32  46 CALM      29.95F
MCGREGOR       SUNNY     55  34  44 CALM      29.95S
$$
MNZ071>073-080-081-089-090-097-098-272200-
   Southwest Minnesota

CITY           SKY/WX    TMP DP  RH WIND       PRES   REMARKS
MONTEVIDEO     SUNNY     61  39  44 SE5       29.97F
GRANITE FALLS  SUNNY     58  37  45 CALM      29.96F
CANBY          SUNNY     57  38  50 CALM      29.96F
MARSHALL       SUNNY     54  37  52 CALM      29.95F
REDWOOD FALLS  SUNNY     57  36  45 E6        29.94F
OLIVIA         SUNNY     55  36  47 E8        29.95F
PIPESTONE      SUNNY     57  32  38 E3        29.93F
WINDOM         MOSUNNY   54  37  54 CALM      29.95F
WORTHINGTON    PTSUNNY   50  38  63 NE8       29.96F
JACKSON          N/A     50  37  62 CALM      29.96F
TRACY          SUNNY     55  39  54 N6        29.95F
SLAYTON        MOSUNNY   53  38  56 SE6       29.95F
$$
MNZ065>067-074>077-082>085-091>093-272200-
   South Central Minnesota

CITY           SKY/WX    TMP DP  RH WIND       PRES   REMARKS
MANKATO        CLOUDY    52  38  58 E5        29.96S
NEW ULM        PTSUNNY   55  36  47 NE7       29.95F
ST JAMES       PTSUNNY   52  39  62 CALM      29.97F
FAIRMONT       CLOUDY    49  41  74 NE6       29.97S
GLENCOE        PTSUNNY   56  39  52 NE3       29.95S
FARIBAULT      CLOUDY    52  39  62 E3        29.95S
OWATONNA       CLOUDY    50  37  62 NE5       29.95S
WASECA         CLOUDY    52  41  66 CALM      29.97S
ALBERT LEA     CLOUDY    46  39  76 NE7       29.95F
$$
MNZ078>079-086>088-094>096-272200-
   Southeast Minnesota

CITY           SKY/WX    TMP DP  RH WIND       PRES   REMARKS
ROCHESTER      CLOUDY    44  40  85 N7        29.95F
RED WING       CLOUDY    50  37  62 NE5       29.95F
STANTON        CLOUDY    50  38  64 NE6       29.95S
DODGE CENTER   CLOUDY    45  39  81 N7        29.95F
WINONA         CLOUDY    46  37  71 NE5       29.97S
AUSTIN         CLOUDY    46  39  76 NE7       29.94F
PRESTON        CLOUDY    46  39  77 N6        29.94F
$$
ABBREVIATIONS USED IN REMARKS
   TC - TEMPERATURES IN CELSIUS
  WCI - WIND CHILL INDEX
   HX - HEAT INDEX
  VSB - VISIBILITY
$$




USA.gov is the U.S. government's official web portal to all federal, state and local government web resources and services.